[[{"header":{"parameterUnit":"m.s-1","parameterCategory":1,"la1":30.2991,"la2":30.254,"lo1":-89.0895,"lo2":-89.0444,"dx":0.0017,"dy":0.0017,"nx":28,"ny":28,"refTime":"2023-01-20T09:00:00:Z","depth":0,"parameterNumber":2,"parameterNumberName":"U-component_of_WINDS"},"data":[0,0,0,0,0,0,0,0,0,0,0,0,0,0,0,0,0,0,0,0,0,0,0,0,0,0,0,0,0,0,0,0,0,0,0,0,0,0,0,0,0,0,0,0,0,0,0,0,0,0,0,0,0,0,0,0,0,0,-1.3615,-1.3615,0,-1.3619,-1.3619,-1.362,-1.3577,-1.3576,-1.3575,-1.3574,-1.358,-1.3581,-1.3582,0,0,0,0,0,0,0,0,0,0,0,0,0,-1.3569,-1.3571,-1.3614,-1.3615,-1.3615,-1.3619,-1.3619,-1.362,-1.3578,-1.3576,-1.3575,-1.3573,-1.358,-1.3581,-1.3583,0,0,0,0,0,0,0,0,0,0,0,0,0,-1.3583,-1.3571,-1.3614,-1.3594,-1.3592,-1.3619,-1.3619,-1.362,-1.3578,-1.3576,-1.3574,-1.3573,-1.3579,-1.3581,-1.3583,-1.3629,0,0,-1.3588,-1.3589,0,0,0,0,0,0,0,0,-1.3583,-1.3585,-1.3597,-1.3596,-1.3594,-1.3596,-1.3606,-1.3623,-1.3578,-1.3584,-1.3574,-1.3572,-1.3587,-1.3588,-1.3593,-1.363,-1.363,-1.3589,-1.359,-1.3591,-1.3591,0,0,0,0,0,0,0,-1.3582,-1.3585,-1.3616,-1.3597,-1.3595,-1.3585,-1.3585,-1.3609,-1.3595,-1.3583,-1.358,-1.3581,-1.3585,-1.3591,-1.3593,-1.363,-1.3589,-1.359,-1.3591,-1.3592,-1.3707,-1.3708,0,0,0,0,0,0,-1.3583,-1.3584,-1.3616,-1.3617,-1.3584,-1.3587,-1.3587,-1.3597,-1.3595,-1.3592,-1.3583,-1.3579,-1.3589,-1.359,-1.3593,-1.3648,-1.3591,-1.3592,-1.3593,-1.3705,-1.3707,-1.3709,0,0,0,0,0,0,-1.3582,-1.3587,-1.3616,-1.3599,-1.3602,-1.359,-1.3601,-1.3598,-1.3604,-1.3594,-1.3592,-1.3591,-1.3587,-1.359,-1.3621,-1.3648,-1.3593,-1.3595,-1.3702,-1.3705,-1.3708,-1.3759,0,0,0,0,0,0,-1.3581,-1.3587,-1.3604,-1.36,-1.3603,-1.3644,-1.3603,-1.3599,-1.3607,-1.3602,-1.3601,-1.3599,-1.3586,-1.3618,-1.3623,-1.3649,-1.3596,-1.37,-1.3704,-1.3707,-1.3755,-1.3763,-1.377,0,0,0,0,0,-1.358,-1.3618,-1.3605,-1.3609,-1.3625,-1.3646,-1.3648,-1.3632,-1.3609,-1.3627,-1.3621,-1.3599,-1.3644,-1.3622,-1.3626,-1.3654,-1.3698,-1.3703,-1.3707,-1.3751,-1.3762,-1.377,0,0,0,0,0,0,-1.3626,-1.3617,-1.3603,-1.3641,-1.3644,-1.3639,-1.3661,-1.3643,-1.3653,-1.3648,-1.3628,-1.3628,-1.3662,-1.3661,-1.3637,-1.3699,-1.3667,-1.3673,-1.3699,-1.3709,-1.3717,-1.3717,-1.3598,0,0,0,0,0,-1.364,-1.3658,-1.3649,-1.3684,-1.3686,-1.3673,-1.3682,-1.3669,-1.3672,-1.3673,-1.3669,-1.3673,-1.3688,-1.3698,-1.3711,-1.3754,-1.3754,-1.3775,-1.3783,-1.3789,-1.3795,-1.3818,-1.3828,-1.3723,-1.3723,-1.3723,0,0,-1.3671,-1.3668,-1.368,-1.3693,-1.3694,-1.3713,-1.3675,-1.3696,-1.371,-1.3676,-1.3705,-1.3703,-1.3706,-1.3743,-1.3759,-1.3743,-1.3823,-1.3795,-1.38,-1.3802,-1.3824,-1.3834,-1.3843,-1.3726,-1.3726,-1.3725,0,0,-1.3736,-1.3735,-1.3764,-1.3766,-1.3768,-1.3759,-1.3767,-1.3763,-1.376,-1.3789,-1.3764,-1.378,-1.3806,-1.381,-1.3815,-1.3881,-1.3862,-1.3886,-1.3927,-1.395,-1.3958,-1.3966,-1.399,-1.3999,-1.3891,-1.3891,-1.3891,0,-1.3774,-1.3801,-1.3782,-1.3805,-1.3812,-1.3781,-1.3811,-1.3814,-1.382,-1.3826,-1.3807,-1.3839,-1.3839,-1.3877,-1.3893,-1.3898,-1.3906,-1.3886,-1.3959,-1.3966,-1.3972,-1.3996,-1.4005,-1.3894,-1.3894,-1.3893,-1.3893,0,-1.3848,-1.3867,-1.389,-1.3897,-1.3906,-1.3932,-1.3918,-1.3929,-1.3915,-1.3908,-1.3938,-1.3937,-1.3949,-1.3957,-1.3944,-1.3994,-1.3983,-1.3962,-1.3929,-1.3985,-1.4007,-1.4016,-1.3898,-1.3897,-1.3896,-1.3895,0,0,-1.3943,-1.3939,-1.3948,-1.3951,-1.3951,-1.3966,-1.399,-1.4003,-1.4013,-1.4018,-1.404,-1.4062,-1.4042,-1.4048,-1.4034,-1.4055,-1.4109,-1.4031,-1.403,-1.4046,-1.4165,-1.4182,-1.4193,-1.4095,-1.4097,-1.4098,-1.4165,0,-1.4008,-1.405,-1.4034,-1.4078,-1.4096,-1.4067,-1.4089,-1.4092,-1.4086,-1.41,-1.4093,-1.411,-1.4082,-1.4086,-1.4104,-1.4098,-1.4132,-1.4093,-1.4116,-1.4117,-1.4118,-1.4204,-1.4222,-1.4285,-1.4173,-1.4175,-1.4176,0,-1.4089,-1.4098,-1.4144,-1.4141,-1.4148,-1.4168,-1.4178,-1.4192,-1.4194,-1.4188,-1.4195,-1.4177,-1.4202,-1.4168,-1.4203,-1.4176,-1.4184,-1.4183,-1.4185,-1.4188,-1.4151,-1.4211,-1.4305,-1.4315,-1.4189,-1.4188,-1.4187,0,-1.4156,-1.4179,-1.421,-1.4213,-1.421,-1.4225,-1.4225,-1.4225,-1.4234,-1.4242,-1.4247,-1.4259,-1.4266,-1.4275,-1.4261,-1.4237,-1.4298,-1.4263,-1.4295,-1.4295,-1.431,-1.4309,-1.4409,-1.4313,-1.4313,-1.4312,-1.4312,0,-1.4231,-1.426,-1.424,-1.4259,-1.4291,-1.4272,-1.4304,-1.4301,-1.4301,-1.432,-1.4295,-1.4313,-1.4292,-1.4308,-1.4297,-1.4328,-1.4331,-1.4327,-1.4324,-1.4331,-1.4331,-1.4337,-1.4333,-1.4315,-1.4314,-1.4314,-1.4313,0,-1.4312,-1.4299,-1.433,-1.4325,-1.4324,-1.4349,-1.4344,-1.4362,-1.4354,-1.4377,-1.4381,-1.4369,-1.4387,-1.4373,-1.439,-1.4383,-1.4424,-1.4414,-1.4423,-1.4421,-1.4454,-1.4452,-1.4562,-1.4576,-1.447,-1.4471,-1.4472,0,-1.4361,-1.4383,-1.438,-1.439,-1.4392,-1.4408,-1.4417,-1.4398,-1.4408,-1.4413,-1.443,-1.4445,-1.4456,-1.4486,-1.4478,-1.4491,-1.4483,-1.452,-1.4484,-1.449,-1.4485,-1.4485,-1.4487,-1.4528,-1.4529,-1.453,-1.4531,0,-1.4451,-1.4443,-1.4456,-1.4467,-1.4478,-1.4486,-1.4492,-1.4502,-1.4483,-1.4495,-1.4513,-1.4521,-1.4539,-1.4554,-1.4565,-1.4564,-1.4545,-1.4542,-1.455,-1.4558,-1.4563,-1.4562,-1.4445,-1.454,-1.4539,-1.4538,-1.4538,-1.4538,-1.4518,-1.4537,-1.4538,-1.4553,-1.4556,-1.4562,-1.4578,-1.4572,-1.4586,-1.4599,-1.4587,-1.4608,-1.461,-1.4622,-1.4624,-1.4641,-1.4626,-1.4637,-1.4641,-1.4644,-1.465,-1.4559,-1.4643,-1.4642,-1.4642,-1.4642,-1.4642,0,-1.4608,-1.4607,-1.4621,-1.463,-1.4643,-1.4622,-1.4628,-1.464,-1.4659,-1.4662,-1.4674,-1.4694,-1.4709,-1.4703,-1.4716,-1.4731,-1.4722,-1.4735,-1.4735,-1.4735,-1.4662,-1.4654,-1.4742,-1.4742,-1.4742,-1.4742,-1.4742,-1.4742,-1.4656,-1.4687,-1.468,-1.4712,-1.471,-1.4731,-1.4736,-1.4742,-1.4744,-1.4768,-1.478,-1.4776,-1.4776,-1.4789,-1.4802,-1.48,-1.4806,-1.4823,-1.4818,-1.475,-1.474,-1.4731,-1.4723,-1.4824,-1.4824,-1.4889,-1.489,-1.4891]},{"header":{"parameterUnit":"m.s-1","parameterCategory":1,"la1":30.2991,"la2":30.254,"lo1":-89.0895,"lo2":-89.0444,"dx":0.0017,"dy":0.0017,"nx":28,"ny":28,"refTime":"2023-01-20T09:00:00:Z","depth":0,"parameterNumber":3,"parameterNumberName":"V-component_of_WINDS"},"data":[0,0,0,0,0,0,0,0,0,0,0,0,0,0,0,0,0,0,0,0,0,0,0,0,0,0,0,0,0,0,0,0,0,0,0,0,0,0,0,0,0,0,0,0,0,0,0,0,0,0,0,0,0,0,0,0,0,0,-2.6923,-2.6923,0,-2.6939,-2.694,-2.694,-2.6929,-2.6928,-2.6928,-2.6928,-2.6942,-2.6942,-2.6943,0,0,0,0,0,0,0,0,0,0,0,0,0,-2.6881,-2.6882,-2.6923,-2.6923,-2.6924,-2.6939,-2.694,-2.694,-2.6929,-2.6928,-2.6928,-2.6927,-2.6941,-2.6942,-2.6943,0,0,0,0,0,0,0,0,0,0,0,0,0,-2.6899,-2.6882,-2.6923,-2.692,-2.692,-2.6939,-2.694,-2.694,-2.6929,-2.6928,-2.6928,-2.6927,-2.6941,-2.6942,-2.6943,-2.6966,0,0,-2.6947,-2.6948,0,0,0,0,0,0,0,0,-2.6898,-2.69,-2.692,-2.692,-2.692,-2.6931,-2.693,-2.6948,-2.6929,-2.6926,-2.6928,-2.6927,-2.6939,-2.694,-2.6945,-2.6966,-2.6967,-2.6947,-2.6948,-2.6949,-2.6949,0,0,0,0,0,0,0,-2.6896,-2.6899,-2.6929,-2.6921,-2.6921,-2.6917,-2.6919,-2.6933,-2.6936,-2.6926,-2.6925,-2.6927,-2.6938,-2.6943,-2.6945,-2.6967,-2.6947,-2.6948,-2.6949,-2.695,-2.7009,-2.701,0,0,0,0,0,0,-2.6896,-2.6898,-2.6929,-2.693,-2.6907,-2.6919,-2.6921,-2.6929,-2.6936,-2.6936,-2.6928,-2.6927,-2.6942,-2.6943,-2.6945,-2.6973,-2.6949,-2.695,-2.695,-2.7008,-2.7009,-2.701,0,0,0,0,0,0,-2.6895,-2.6899,-2.6928,-2.6914,-2.6918,-2.692,-2.6929,-2.6929,-2.6934,-2.6937,-2.6938,-2.6933,-2.6941,-2.6944,-2.6961,-2.6973,-2.695,-2.6951,-2.7007,-2.7009,-2.701,-2.7028,0,0,0,0,0,0,-2.6894,-2.6898,-2.6907,-2.6914,-2.6918,-2.6945,-2.693,-2.693,-2.6937,-2.6935,-2.6942,-2.6942,-2.6941,-2.6959,-2.6962,-2.6975,-2.6952,-2.7006,-2.7008,-2.7009,-2.7026,-2.703,-2.7033,0,0,0,0,0,-2.6892,-2.6911,-2.6908,-2.6911,-2.693,-2.6945,-2.6947,-2.6946,-2.6938,-2.6947,-2.6949,-2.6942,-2.6971,-2.6961,-2.6965,-2.6977,-2.7005,-2.7007,-2.7009,-2.7025,-2.7029,-2.7032,0,0,0,0,0,0,-2.6904,-2.6912,-2.6908,-2.693,-2.6937,-2.6943,-2.6954,-2.695,-2.6959,-2.6958,-2.6955,-2.6956,-2.6975,-2.6978,-2.6966,-2.7,-2.6987,-2.699,-2.6998,-2.7002,-2.7005,-2.7004,-2.6953,0,0,0,0,0,-2.6909,-2.6922,-2.6927,-2.6946,-2.695,-2.6952,-2.6958,-2.6957,-2.6964,-2.6967,-2.697,-2.6976,-2.6987,-2.6994,-2.7004,-2.7026,-2.7028,-2.7037,-2.704,-2.7042,-2.7045,-2.7058,-2.7062,-2.7016,-2.7016,-2.7016,0,0,-2.6919,-2.6925,-2.6933,-2.6948,-2.6954,-2.6967,-2.6954,-2.6968,-2.6978,-2.6968,-2.6986,-2.6989,-2.6996,-2.7016,-2.7025,-2.7019,-2.7058,-2.7045,-2.7047,-2.7048,-2.7061,-2.7065,-2.7069,-2.7018,-2.7017,-2.7017,0,0,-2.6946,-2.6951,-2.6968,-2.6974,-2.6983,-2.6984,-2.6988,-2.6995,-2.6997,-2.7015,-2.7009,-2.7019,-2.7038,-2.7044,-2.7049,-2.7079,-2.7073,-2.7082,-2.7098,-2.7111,-2.7115,-2.7118,-2.713,-2.7134,-2.7084,-2.7084,-2.7084,0,-2.6957,-2.6978,-2.6976,-2.6992,-2.6999,-2.6992,-2.7009,-2.7015,-2.7026,-2.7031,-2.7024,-2.7048,-2.7052,-2.7074,-2.7081,-2.7085,-2.709,-2.7081,-2.7115,-2.7118,-2.7121,-2.7132,-2.7137,-2.7085,-2.7085,-2.7085,-2.7085,0,-2.6992,-2.7006,-2.7019,-2.7032,-2.704,-2.7056,-2.7057,-2.7065,-2.7063,-2.7065,-2.7083,-2.7088,-2.71,-2.7105,-2.7102,-2.7127,-2.7123,-2.7115,-2.7102,-2.7126,-2.7137,-2.7141,-2.7087,-2.7086,-2.7086,-2.7086,0,0,-2.7026,-2.7039,-2.7044,-2.7051,-2.706,-2.7071,-2.7086,-2.7099,-2.7107,-2.7115,-2.7128,-2.7144,-2.7138,-2.7144,-2.7141,-2.7153,-2.7178,-2.7144,-2.7144,-2.7151,-2.7207,-2.7214,-2.7219,-2.7174,-2.7174,-2.7175,-2.7207,0,-2.7054,-2.7083,-2.7083,-2.711,-2.7123,-2.7117,-2.7131,-2.7138,-2.714,-2.7152,-2.7153,-2.7166,-2.7155,-2.7159,-2.717,-2.7172,-2.7189,-2.717,-2.7186,-2.7187,-2.7186,-2.7224,-2.7231,-2.7261,-2.7211,-2.7211,-2.7212,0,-2.7091,-2.7102,-2.7131,-2.714,-2.7146,-2.7158,-2.717,-2.7181,-2.7189,-2.719,-2.7197,-2.7194,-2.7209,-2.7196,-2.7218,-2.7205,-2.7211,-2.7213,-2.7215,-2.7217,-2.7202,-2.7229,-2.727,-2.7275,-2.7218,-2.7218,-2.7217,0,-2.7115,-2.7137,-2.7157,-2.7163,-2.7173,-2.7183,-2.7187,-2.7195,-2.7203,-2.7213,-2.7218,-2.7229,-2.7236,-2.7244,-2.7244,-2.7233,-2.7266,-2.7252,-2.7268,-2.7268,-2.7276,-2.7276,-2.7321,-2.7278,-2.7278,-2.7278,-2.7278,0,-2.7147,-2.7165,-2.7168,-2.7181,-2.7201,-2.72,-2.722,-2.7223,-2.723,-2.7243,-2.7238,-2.725,-2.7248,-2.726,-2.7259,-2.7278,-2.7281,-2.7282,-2.7282,-2.7284,-2.7284,-2.7289,-2.7287,-2.7279,-2.7279,-2.7278,-2.7278,0,-2.7178,-2.7181,-2.7203,-2.7212,-2.7214,-2.7229,-2.7236,-2.7248,-2.725,-2.7267,-2.727,-2.7273,-2.7287,-2.7287,-2.7303,-2.7302,-2.7326,-2.7323,-2.7324,-2.7324,-2.734,-2.7339,-2.7391,-2.7398,-2.735,-2.735,-2.735,0,-2.7199,-2.7213,-2.7224,-2.7234,-2.7239,-2.7253,-2.7262,-2.7262,-2.7271,-2.7282,-2.7292,-2.7306,-2.7317,-2.734,-2.7343,-2.7355,-2.7352,-2.737,-2.7354,-2.7356,-2.7355,-2.7355,-2.7356,-2.7373,-2.7374,-2.7374,-2.7374,0,-2.7237,-2.7238,-2.7251,-2.7266,-2.7276,-2.7287,-2.7297,-2.7304,-2.7305,-2.7315,-2.733,-2.7339,-2.7356,-2.737,-2.7381,-2.7385,-2.7381,-2.7379,-2.7384,-2.7386,-2.7387,-2.7389,-2.7334,-2.7378,-2.7378,-2.7378,-2.7377,-2.7377,-2.7265,-2.7278,-2.7288,-2.7303,-2.7311,-2.7321,-2.7333,-2.7337,-2.735,-2.7365,-2.7363,-2.738,-2.7388,-2.7404,-2.7409,-2.7422,-2.7416,-2.7422,-2.7424,-2.7426,-2.7429,-2.7384,-2.7424,-2.7424,-2.7423,-2.7423,-2.7423,0,-2.7304,-2.7311,-2.7325,-2.734,-2.7352,-2.7347,-2.7357,-2.7368,-2.7383,-2.7392,-2.7403,-2.7421,-2.7435,-2.7439,-2.7452,-2.7462,-2.746,-2.7466,-2.7466,-2.7467,-2.7432,-2.7428,-2.7467,-2.7467,-2.7467,-2.7467,-2.7467,-2.7467,-2.7326,-2.7348,-2.735,-2.7376,-2.7382,-2.74,-2.7407,-2.7416,-2.7423,-2.7444,-2.7456,-2.7459,-2.7466,-2.7479,-2.7492,-2.7493,-2.7498,-2.7505,-2.7505,-2.7473,-2.7469,-2.7465,-2.7461,-2.7506,-2.7506,-2.7539,-2.7539,-2.7539]}]]